ON1TG-13 Weather Reports


Display with metric or nautical units.
time (UTC)temp
F
wind
direction
speed
MPH
gust
MPH
rain 1hr
in
rain 24hr
in
rain mn
in
humidity
%
barometer
mb
20260507113728 75 25 8.0 16.0 0.00 0.00 0.00 21 1016.0
20260507112151 75 18 8.0 16.0 0.00 0.00 0.00 21 1015.9
20260507110643 74 12 8.0 14.0 0.00 0.00 0.00 21 1016.1
20260507105145 76 19 6.0 13.0 0.00 0.00 0.00 21 1016.1
20260507103629 76 17 4.0 13.0 0.00 0.00 0.00 21 1016.1
20260507102121 74 13 6.0 14.0 0.00 0.00 0.00 21 1016.2
20260507100614 71 359 9.0 16.0 0.00 0.00 0.00 21 1016.1
20260507095107 73 358 8.0 14.0 0.00 0.00 0.00 21 1016.0
20260507093559 73 356 7.0 14.0 0.00 0.00 0.00 21 1015.8
20260507090544 83 128 2.0 5.0 0.00 0.00 0.00 21 1015.8
20260507085037 76 45 3.0 6.0 0.00 0.00 0.00 21 1015.7
20260507083528 74 39 4.0 8.0 0.00 0.00 0.00 21 1015.6
20260507082021 74 69 3.0 27.0 0.00 0.00 0.00 21 1015.6
20260507080514 70 47 5.0 10.0 0.00 0.00 0.00 21 1015.6
20260507075007 71 62 4.0 8.0 0.00 0.00 0.00 21 1015.5
20260507073459 68 63 5.0 8.0 0.00 0.00 0.00 21 1015.5
20260507071953 66 49 7.0 11.0 0.00 0.00 0.00 21 1015.4
20260507070444 67 52 6.0 11.0 0.00 0.00 0.00 21 1015.3
20260507064937 67 43 8.0 11.0 0.00 0.00 0.00 21 1015.1
20260507063429 64 50 8.0 11.0 0.00 0.00 0.00 21 1015.1
20260507061922 67 46 7.0 11.0 0.00 0.00 0.00 21 1015.1
20260507060414 66 44 8.0 13.0 0.00 0.00 0.00 21 1014.9
20260507054903 65 41 8.0 15.0 0.00 0.00 0.00 21 1014.8
20260507053344 65 43 9.0 14.0 0.00 0.00 0.00 21 1014.6
20260507051827 67 36 6.0 10.0 0.00 0.00 0.00 21 1014.7
20260507050258 64 44 6.0 11.0 0.00 0.00 0.00 21 1014.5
20260507044732 65 40 7.0 12.0 0.00 0.00 0.00 21 1014.3
20260507043207 65 37 8.0 15.0 0.00 0.00 0.00 21 1014.1
20260507041635 64 36 9.0 14.0 0.00 0.00 0.00 21 1014.0
20260507040055 68 28 7.0 12.0 0.00 0.00 0.00 21 1014.0
20260507034502 67 26 8.0 12.0 0.00 0.00 0.00 21 1013.8
20260507032916 69 21 6.0 11.0 0.00 0.00 0.00 21 1013.7
20260507031344 69 17 6.0 11.0 0.00 0.00 0.00 21 1013.6
20260507025818 70 20 4.0 9.0 0.00 0.00 0.00 21 1013.5
20260507022735 70 19 6.0 11.0 0.00 0.00 0.00 21 1013.4
20260507021216 69 16 6.0 11.0 0.00 0.00 0.00 21 1013.4
20260507015704 71 14 7.0 14.0 0.00 0.00 0.00 21 1013.2
20260507014152 69 14 9.0 15.0 0.00 0.00 0.00 21 1013.1
20260507012639 68 10 8.0 21.0 0.00 0.00 0.00 21 1013.1
20260507011131 67 8 10.0 19.0 0.00 0.00 0.00 21 1013.1
20260507005620 69 5 8.0 16.0 0.00 0.00 0.00 21 1013.1
20260507004105 67 13 10.0 19.0 0.00 0.00 0.00 21 1013.0
20260507002554 69 10 10.0 19.0 0.00 0.00 0.00 21 1013.1
20260507001046 67 359 12.0 21.0 0.00 0.00 0.00 21 1013.1
20260506235539 68 10 9.0 20.0 0.00 0.00 0.00 21 1013.2
20260506234025 68 2 10.0 17.0 0.00 0.00 0.00 21 1013.0
20260506232513 67 10 10.0 19.0 0.00 0.00 0.00 21 1012.9
20260506230957 67 12 10.0 20.0 0.00 0.00 0.00 21 1013.0
20260506225442 68 17 9.0 18.0 0.00 0.00 0.00 21 1012.9
20260506223923 68 8 10.0 16.0 0.00 0.00 0.00 21 1012.7
20260506222402 68 359 8.0 15.0 0.00 0.00 0.00 21 1012.9
20260506220845 68 358 9.0 18.0 0.00 0.00 0.00 21 1012.8
20260506215336 69 8 8.0 18.0 0.00 0.00 0.00 21 1012.7
20260506213826 69 12 8.0 18.0 0.00 0.00 0.00 21 1012.6
20260506212319 67 0 10.0 17.0 0.00 0.00 0.00 21 1012.7
20260506210807 68 0 10.0 16.0 0.00 0.00 0.00 21 1012.7
20260506205255 69 350 8.0 19.0 0.00 0.00 0.00 21 1012.6
20260506203745 69 0 8.0 15.0 0.00 0.00 0.00 21 1012.6
20260506202235 68 11 7.0 17.0 0.00 0.00 0.00 21 1012.4
20260506200724 68 17 9.0 17.0 0.00 0.00 0.00 21 1012.4
20260506195216 68 3 10.0 18.0 0.00 0.00 0.00 21 1012.2
20260506193704 68 1 9.0 16.0 0.00 0.00 0.00 21 1012.2
20260506192151 67 3 10.0 17.0 0.00 0.00 0.00 21 1011.9
20260506190639 68 351 9.0 19.0 0.00 0.00 0.00 21 1011.8
20260506185129 67 358 11.0 19.0 0.00 0.00 0.00 21 1011.8
20260506183619 69 7 7.0 20.0 0.00 0.00 0.00 21 1011.6
20260506182112 68 354 11.0 18.0 0.00 0.00 0.00 21 1011.6
20260506180604 71 357 7.0 19.0 0.00 0.00 0.00 21 1011.4
20260506175056 70 347 8.0 20.0 0.00 0.00 0.00 21 1011.3
20260506173549 70 10 10.0 19.0 0.00 0.00 0.00 21 1011.2
20260506172042 70 345 12.0 22.0 0.00 0.00 0.00 21 1011.0
20260506170535 69 355 11.0 20.0 0.00 0.00 0.00 21 1011.0
20260506165027 70 350 13.0 22.0 0.00 0.00 0.00 21 1010.9
20260506163520 70 1 12.0 21.0 0.00 0.00 0.00 21 1010.9
20260506162012 70 0 12.0 20.0 0.00 0.00 0.00 21 1010.8
20260506160505 72 7 11.0 23.0 0.00 0.00 0.00 21 1010.8
20260506154956 74 16 8.0 22.0 0.00 0.00 0.00 21 1010.8
20260506153448 71 353 13.0 23.0 0.00 0.00 0.00 21 1010.8
20260506151941 73 0 10.0 20.0 0.00 0.00 0.00 21 1010.7
20260506150434 71 357 13.0 23.0 0.00 0.00 0.00 21 1010.7
20260506144926 74 359 11.0 22.0 0.00 0.00 0.00 21 1010.7
20260506143419 71 0 13.0 24.0 0.00 0.00 0.00 21 1010.4
20260506141912 73 0 12.0 25.0 0.00 0.00 0.00 21 1010.5
20260506140405 71 1 14.0 22.0 0.00 0.00 0.00 21 1010.6
20260506134857 70 4 14.0 22.0 0.00 0.00 0.00 21 1010.3
20260506133350 72 344 13.0 21.0 0.00 0.00 0.00 21 1010.5
20260506131843 71 6 11.0 21.0 0.00 0.00 0.00 21 1010.6
20260506130336 72 349 11.0 22.0 0.00 0.00 0.00 21 1010.7
20260506124828 73 358 11.0 22.0 0.00 0.00 0.00 21 1010.6
20260506123321 73 345 10.0 22.0 0.00 0.00 0.00 21 1010.3
20260506121814 214 359 15.0 26.0 0.00 0.00 0.00 21 1011.5
20260506120306 73 2 12.0 22.0 0.00 0.00 0.00 21 1010.3
20260506114759 72 358 14.0 22.0 0.00 0.00 0.00 21 1010.2